Temp
75 75 74 74 73 74 73 71 69 66 67 71 71 74 75 73 75 74 73 74 73 73 73 73 73 74 75 75 76 76 76 77 77 77 77 77 78 78
75 74 74 75 74 74 73 72 72 69 67 70 71 74 75 76 75 74 74 74 73 72 72 72 73 73 73 74 74 74 74 75 75 75 75 75 75 76
76 74 75 75 75 74 74 73 72 71 69 70 72 74 74 73 74 73 73 72 72 71 71 71 71 72 72 73 73 73 73 73 73 73 74 74 74 74
76 74 75 75 75 75 74 74 73 73 70 69 71 73 73 74 73 71 73 75 72 72 70 69 69 70 70 70 70 71 70 70 70 71 72 73 73 73
77 74 77 75 75 75 75 73 73 74 71 70 70 73 73 74 72 72 71 71 73 74 70 69 69 69 68 68 67 67 66 66 67 67 68 69 71 72
75 77 76 75 74 74 73 74 74 73 72 71 71 71 72 73 73 71 71 72 72 78 75 73 71 70 68 66 66 66 64 63 63 63 64 65 66 68
73 76 79 78 76 74 76 75 73 73 72 72 71 71 70 71 71 72 71 71 72 72 73 73 73 71 72 68 70 69 66 64 63 62 62 62 63 64
70 71 73 76 76 73 72 75 75 74 73 72 72 70 71 71 72 73 72 69 68 73 75 72 73 73 73 74 72 69 66 65 64 63 61 61 61 61
71 71 73 78 74 77 72 72 73 74 76 75 72 72 72 73 73 72 71 70 70 72 73 73 72 74 77 77 71 68 67 65 64 64 63 62 61 60
72 72 71 71 75 77 76 73 74 76 75 77 76 74 75 75 75 74 73 73 72 73 73 69 71 72 76 78 72 69 67 66 65 63 62 60 59 57
69 70 72 72 73 72 75 75 74 73 71 71 73 75 76 74 75 74 72 70 69 71 72 72 71 70 72 74 73 68 67 65 66 64 62 60 57 56
72 72 71 70 69 65 71 69 66 71 74 74 71 69 69 72 71 75 73 70 69 69 72 71 71 69 67 72 72 69 68 66 65 63 62 60 57 63
71 75 74 63 62 63 68 68 68 69 68 69 72 72 72 73 77 74 74 73 70 68 72 71 69 69 69 68 70 70 69 66 66 63 59 58 57 62
72 77 72 60 60 61 62 66 63 66 68 68 70 73 72 73 74 74 73 73 71 72 71 72 70 69 67 67 67 70 71 70 69 69 68 61 57 56
74 70 64 61 61 62 60 63 63 69 71 71 71 70 71 73 74 73 72 72 71 72 72 72 71 70 69 67 66 68 67 69 70 69 70 68 67 63
65 66 65 64 62 65 66 65 67 69 71 72 71 71 71 71 70 70 69 68 68 68 71 72 71 71 69 69 68 66 67 65 66 67 67 68 67 67
67 68 67 66 65 66 67 69 68 69 71 72 70 69 70 69 68 69 68 67 66 65 66 69 71 71 71 70 66 66 66 65 66 66 66 62 62 61
67 67 67 67 66 66 67 68 68 70 70 70 70 69 69 67 67 67 67 66 65 65 65 67 68 67 67 64 65 64 64 63 64 64 63 59 58 59
68 66 66 67 68 67 67 67 68 70 71 71 69 67 67 68 67 66 66 65 64 64 65 65 64 64 61 60 62 60 66 63 63 63 59 59 57 57
63 67 67 66 66 68 68 69 69 69 69 71 69 67 67 67 65 66 65 65 64 63 63 63 63 61 59 58 59 61 57 62 60 58 56 55 56 58
61 63 65 66 66 68 69 69 70 70 69 69 69 68 67 67 66 66 65 61 62 63 59 58 59 62 60 60 58 56 58 58 60 58 55 54 53 52
70 69 67 69 69 68 68 69 69 69 70 69 68 67 67 68 67 63 65 66 62 62 58 58 58 59 58 56 54 54 55 57 58 59 60 60 55 51
65 66 65 69 70 68 68 69 70 70 68 67 67 66 66 65 66 63 63 62 60 59 57 56 56 56 56 56 56 54 55 55 55 55 56 59 59 59
MSLP
1018.04 1018.00 1018.02 1018.01 1018.19 1018.17 1018.04 1018.13 1018.66 1018.94 1018.49 1017.73 1017.69 1017.28 1017.56 1017.98 1017.92 1018.14 1018.38 1018.65 1018.91 1019.43 1019.72 1020.03 1020.40 1020.82 1021.26 1021.57 1021.96 1022.33 1022.61 1022.86 1023.07 1023.29 1023.53 1023.79 1024.05 1024.23
1017.55 1017.68 1017.64 1017.52 1017.45 1017.51 1017.48 1017.63 1017.89 1018.42 1018.60 1017.79 1017.55 1017.20 1017.06 1017.29 1017.41 1017.63 1017.78 1017.98 1018.28 1018.61 1019.02 1019.41 1019.76 1020.09 1020.50 1020.89 1021.19 1021.52 1021.87 1022.18 1022.47 1022.67 1022.86 1023.12 1023.40 1023.59
1016.93 1017.11 1017.07 1016.92 1016.88 1016.92 1016.94 1017.05 1017.46 1017.74 1018.15 1017.77 1017.56 1017.11 1017.08 1017.22 1017.24 1017.48 1017.57 1017.69 1017.95 1018.05 1018.16 1018.91 1019.27 1019.48 1019.75 1020.13 1020.43 1020.72 1021.05 1021.41 1021.66 1021.90 1022.16 1022.42 1022.63 1022.80
1016.33 1016.56 1016.61 1016.45 1016.44 1016.27 1016.43 1016.70 1016.81 1017.01 1017.67 1017.77 1017.45 1017.40 1017.15 1017.11 1017.15 1017.44 1017.42 1017.37 1017.59 1017.71 1017.84 1018.17 1018.58 1018.91 1019.21 1019.50 1019.73 1019.87 1020.14 1020.48 1020.84 1021.17 1021.41 1021.51 1021.75 1021.98
1015.51 1015.87 1015.91 1015.78 1015.91 1015.82 1015.81 1016.22 1016.22 1016.49 1017.01 1017.38 1017.30 1017.01 1016.88 1016.86 1017.19 1017.30 1017.33 1017.32 1017.17 1017.18 1017.52 1017.49 1017.86 1018.23 1018.53 1018.89 1019.16 1019.33 1019.50 1019.75 1020.07 1020.27 1020.49 1020.78 1021.03 1021.36
1014.78 1014.95 1015.08 1015.12 1015.20 1015.24 1015.27 1015.31 1015.72 1015.90 1016.25 1016.72 1016.79 1016.69 1016.68 1016.56 1016.75 1017.12 1017.17 1016.95 1016.90 1016.70 1016.75 1017.13 1017.43 1017.37 1017.54 1017.76 1018.08 1018.34 1018.60 1018.93 1019.19 1019.50 1019.89 1020.20 1020.40 1020.48
1013.46 1013.77 1014.16 1014.27 1014.14 1014.16 1014.62 1014.78 1014.98 1015.22 1015.49 1015.94 1016.20 1016.09 1016.15 1016.23 1016.16 1016.17 1016.50 1016.39 1016.19 1016.29 1016.46 1016.52 1016.72 1017.07 1017.01 1017.26 1017.29 1017.32 1017.42 1017.78 1018.10 1018.30 1018.54 1018.77 1019.00 1019.21
1012.64 1012.75 1013.35 1013.60 1013.60 1013.53 1013.41 1013.78 1014.07 1014.31 1014.62 1015.09 1015.36 1015.53 1015.34 1015.29 1015.31 1015.58 1015.82 1016.11 1016.04 1015.26 1015.73 1015.73 1015.85 1016.14 1016.02 1016.05 1015.94 1016.22 1016.45 1016.73 1016.99 1017.33 1017.70 1018.05 1018.34 1018.52
1011.64 1010.82 1011.80 1012.63 1012.98 1012.93 1012.67 1012.91 1013.29 1013.26 1013.32 1013.75 1014.27 1014.41 1014.48 1014.36 1014.45 1014.82 1015.00 1015.04 1015.12 1014.69 1015.01 1015.16 1015.22 1015.21 1014.80 1014.88 1014.92 1015.08 1015.23 1015.41 1015.75 1016.22 1016.58 1016.94 1017.30 1017.59
1011.27 1010.32 1010.98 1011.70 1012.06 1012.58 1012.50 1012.60 1012.65 1012.49 1012.51 1012.68 1012.79 1013.02 1013.11 1013.26 1013.47 1013.77 1013.97 1014.18 1014.16 1014.15 1014.06 1014.59 1014.39 1014.61 1014.06 1013.84 1013.86 1014.09 1014.14 1014.53 1014.80 1015.11 1015.62 1016.10 1016.53 1016.89
1011.16 1010.73 1011.59 1012.28 1012.07 1011.86 1011.74 1012.18 1012.25 1012.20 1011.97 1012.09 1012.13 1012.11 1012.19 1012.29 1012.46 1013.06 1013.48 1013.94 1014.00 1013.80 1013.53 1013.74 1013.93 1013.99 1013.71 1013.47 1013.07 1013.11 1013.42 1013.52 1013.98 1014.36 1014.83 1015.47 1015.86 1016.22
1010.24 1010.59 1011.03 1011.28 1011.36 1011.42 1011.73 1012.71 1013.46 1012.56 1012.36 1012.18 1012.32 1012.30 1012.02 1011.90 1011.78 1011.78 1012.30 1012.97 1013.38 1013.42 1013.25 1013.48 1013.48 1013.80 1013.92 1013.28 1013.03 1012.89 1013.15 1013.70 1013.93 1014.21 1014.47 1014.98 1015.39 1015.77
1010.66 1010.40 1011.04 1011.06 1010.98 1011.03 1010.87 1010.45 1011.21 1010.43 1011.52 1012.78 1013.35 1012.35 1011.97 1011.82 1011.63 1011.52 1011.32 1011.84 1012.39 1012.83 1012.61 1012.75 1013.26 1013.55 1013.74 1013.67 1013.45 1013.15 1013.00 1013.53 1013.80 1014.17 1014.56 1014.82 1015.01 1015.04
1010.76 1010.21 1010.40 1010.50 1010.69 1010.66 1011.06 1011.23 1010.85 1011.62 1011.56 1011.74 1012.44 1011.92 1011.30 1011.13 1010.94 1011.12 1010.90 1011.00 1011.34 1011.60 1011.80 1011.90 1012.72 1013.20 1014.05 1014.25 1014.21 1013.56 1013.43 1013.24 1013.38 1013.62 1013.88 1014.35 1014.86 1015.04
1010.18 1010.07 1010.13 1010.53 1010.54 1010.72 1010.77 1010.61 1010.56 1010.42 1010.88 1011.63 1011.02 1010.38 1010.08 1010.09 1010.29 1010.51 1010.50 1010.74 1010.95 1011.05 1011.24 1011.34 1011.73 1012.41 1013.22 1013.96 1014.16 1013.66 1013.71 1013.14 1012.76 1013.15 1013.41 1013.74 1014.07 1014.35
1009.77 1010.10 1010.27 1010.16 1010.37 1010.35 1010.32 1010.10 1010.18 1010.09 1009.93 1009.78 1009.43 1009.34 1009.61 1009.67 1010.00 1010.10 1010.48 1010.89 1011.24 1011.17 1011.05 1011.00 1011.21 1011.54 1012.49 1013.03 1013.14 1013.30 1013.38 1013.28 1013.17 1013.31 1013.47 1013.57 1013.70 1013.85
1009.06 1009.63 1009.73 1009.60 1009.82 1009.93 1009.91 1009.68 1009.41 1009.18 1009.11 1009.14 1009.01 1008.93 1009.03 1009.32 1009.73 1009.95 1010.36 1010.81 1011.05 1011.13 1011.24 1011.21 1011.03 1011.27 1011.84 1012.33 1012.82 1012.98 1013.06 1013.07 1013.00 1013.25 1013.62 1014.35 1014.66 1014.77
1008.71 1008.93 1008.97 1009.11 1009.36 1009.06 1009.28 1009.32 1009.16 1008.88 1008.33 1008.19 1008.20 1008.29 1008.64 1008.96 1009.36 1009.74 1010.13 1010.47 1010.91 1011.20 1011.32 1011.18 1011.23 1011.69 1012.27 1012.77 1012.73 1013.03 1013.33 1013.44 1013.36 1013.46 1013.77 1014.61 1015.37 1015.49
1008.32 1008.21 1008.29 1008.37 1008.49 1008.19 1008.32 1008.40 1008.28 1008.11 1007.63 1007.58 1007.76 1007.97 1008.33 1008.75 1009.11 1009.54 1009.95 1010.22 1010.74 1011.06 1011.28 1011.19 1011.41 1011.86 1012.64 1013.03 1013.08 1013.02 1013.22 1013.53 1013.72 1014.14 1014.32 1014.67 1015.35 1015.57
1007.52 1007.40 1007.41 1007.45 1007.41 1007.30 1007.52 1007.55 1007.53 1007.43 1007.32 1007.08 1007.28 1007.53 1007.92 1008.39 1008.91 1009.29 1009.64 1010.15 1010.60 1010.98 1011.38 1011.49 1011.48 1011.78 1012.29 1013.05 1013.34 1013.33 1013.17 1013.45 1013.90 1014.40 1014.82 1014.98 1015.64 1015.36
1006.94 1006.75 1006.59 1006.54 1006.49 1006.48 1006.63 1006.73 1006.83 1006.76 1006.87 1006.69 1006.73 1007.08 1007.47 1007.99 1008.47 1008.95 1009.31 1009.78 1010.21 1010.86 1011.68 1012.15 1012.09 1011.77 1012.09 1012.63 1013.35 1013.72 1013.49 1013.22 1013.39 1013.95 1014.48 1015.00 1015.35 1015.67
1005.36 1005.32 1005.32 1005.23 1005.22 1005.38 1005.50 1005.73 1005.99 1006.13 1006.20 1006.27 1006.34 1006.72 1007.22 1007.66 1008.09 1008.71 1009.11 1009.43 1010.12 1010.74 1011.40 1011.97 1012.19 1012.28 1012.70 1013.23 1013.90 1014.07 1014.00 1013.80 1013.62 1013.80 1013.91 1014.17 1014.80 1015.09
1004.19 1004.06 1003.99 1003.80 1003.88 1004.01 1004.30 1004.61 1004.87 1005.05 1005.25 1005.30 1005.66 1006.06 1006.65 1007.35 1007.78 1008.58 1009.09 1009.49 1010.11 1010.92 1011.54 1012.20 1012.52 1012.68 1013.08 1013.43 1013.80 1014.10 1014.23 1014.20 1014.13 1014.18 1014.17 1014.00 1014.25 1014.32
Wind_Speed
6 6 5 5 4 4 4 3 4 1 3 3 3 5 6 6 10 9 9 13 13 17 20 19 18 18 17 17 17 17 17 16 16 17 17 18 19 19
4 6 5 4 5 4 3 3 4 4 3 2 4 4 5 5 7 7 8 11 16 16 17 19 19 18 17 17 17 17 18 18 18 17 17 17 17 18
6 7 7 6 5 4 4 4 4 4 5 3 2 3 4 4 4 4 5 6 6 14 14 14 16 18 19 20 19 19 19 18 18 18 18 17 18 18
7 6 9 5 7 6 4 5 4 4 4 5 2 3 4 4 5 5 4 5 6 11 14 14 16 16 16 18 19 19 18 18 18 17 17 19 18 18
6 6 10 7 7 5 6 5 4 4 4 3 4 3 4 2 2 3 4 4 4 9 12 15 15 14 14 15 16 16 17 17 18 18 19 17 18 16
4 7 8 9 8 7 6 6 5 5 4 4 4 4 3 4 3 3 5 4 6 6 9 8 10 15 17 18 18 18 18 18 17 16 15 15 15 17
4 2 8 10 13 10 5 6 6 5 4 5 5 3 4 3 6 5 6 5 6 5 5 5 6 7 9 13 15 20 20 20 19 19 19 20 20 20
7 5 3 8 11 14 15 13 10 8 7 6 6 5 5 5 4 6 6 4 3 5 7 7 7 8 8 8 17 20 19 21 21 19 17 16 16 17
7 8 2 3 9 9 10 15 14 15 12 9 6 7 5 6 4 4 5 5 5 3 6 6 4 8 7 8 15 18 21 21 22 20 18 18 17 16
4 5 3 4 8 9 7 6 10 11 11 8 9 8 7 7 6 6 6 4 1 3 4 5 4 6 6 7 13 18 20 20 19 19 17 16 15 14
7 6 2 8 13 14 6 6 6 6 6 13 12 13 14 13 8 4 4 3 3 4 4 4 3 4 3 3 5 13 16 19 18 16 15 13 14 11
3 3 8 14 17 4 7 8 10 8 7 5 6 4 6 9 12 8 5 5 4 2 2 4 1 3 3 2 2 2 2 4 7 10 11 11 10 4
6 8 2 5 9 10 11 13 18 8 3 5 14 7 5 7 6 6 7 5 4 4 4 4 2 1 2 3 3 2 3 2 3 4 7 8 11 9
9 8 2 3 2 8 6 10 13 3 4 9 18 11 6 6 6 5 6 5 4 6 4 4 4 3 2 4 5 4 2 3 4 4 4 4 8 9
8 8 3 2 4 4 11 14 7 7 8 12 12 7 6 6 5 3 2 4 5 4 5 5 4 5 5 4 3 4 4 4 4 3 4 5 4 4
7 5 6 4 4 4 5 5 5 7 9 9 6 6 4 4 4 4 4 3 3 2 4 6 6 6 4 5 5 3 3 3 1 1 1 1 2 1
6 3 3 3 3 4 4 6 5 5 6 8 6 4 4 4 4 3 3 3 3 3 2 3 5 4 3 3 2 3 3 2 2 3 3 3 4 4
4 4 4 4 6 5 5 6 6 8 7 6 4 4 6 4 4 3 2 3 3 3 2 1 2 2 2 3 5 0 2 2 1 2 2 4 2 2
3 5 6 6 8 6 6 5 7 8 6 6 5 4 4 4 5 3 3 3 2 3 3 3 3 4 3 2 2 7 4 1 3 3 3 3 4 3
4 8 8 6 6 6 6 7 7 6 5 5 5 5 5 6 4 4 4 4 3 3 2 1 3 3 5 6 4 1 5 3 3 3 1 1 4 8
8 7 7 7 7 7 7 8 9 9 7 4 5 6 6 5 4 4 5 8 7 3 4 3 2 5 5 4 4 2 3 6 5 5 3 3 1 1
9 9 9 9 9 9 9 8 8 9 9 6 6 5 6 5 5 5 5 7 4 5 4 4 3 3 4 3 2 2 1 2 4 4 5 9 5 2
9 8 7 8 9 9 8 8 9 8 7 7 7 6 5 4 5 5 4 6 7 7 4 3 2 2 2 3 4 2 2 1 2 1 3 4 7 6
Wind_Direction
227 227 223 247 243 243 235 172 168 263 287 274 215 198 202 199 217 207 215 218 204 205 206 204 203 205 209 209 214 218 223 227 224 220 221 225 228 232
225 238 240 231 248 247 246 221 179 184 253 245 248 229 194 191 210 201 207 204 209 209 207 206 208 207 208 211 213 216 219 221 223 224 220 221 225 229
229 220 242 234 231 228 232 204 198 174 231 291 262 260 209 176 205 192 208 196 210 205 209 211 213 214 216 218 216 215 219 222 222 223 224 223 223 227
229 231 245 240 245 223 211 220 197 186 162 245 240 272 220 200 191 191 217 212 204 220 210 212 218 216 218 221 219 215 216 219 223 224 225 224 225 227
242 229 246 233 247 230 223 207 200 178 181 193 242 245 227 172 169 208 209 240 215 226 225 217 211 219 224 224 223 221 219 219 219 219 225 224 227 233
274 247 247 242 234 222 217 209 198 190 182 195 224 240 218 221 166 185 234 218 230 226 225 220 232 229 219 214 213 216 217 217 222 221 222 224 224 225
170 260 258 246 243 215 209 214 188 196 183 210 236 225 214 205 200 196 212 224 232 198 218 229 217 223 236 234 240 230 221 220 221 220 217 218 221 224
167 154 113 312 275 236 228 218 197 193 203 203 221 217 230 207 195 203 213 182 255 207 203 237 188 222 227 218 219 223 218 222 223 223 224 225 226 226
194 151 69 266 294 257 237 230 218 205 195 193 207 211 208 212 190 210 204 193 208 238 187 231 180 234 220 226 221 216 221 215 218 220 220 222 222 224
266 52 42 306 279 265 249 223 224 215 214 207 204 213 206 217 194 195 207 219 242 237 166 203 176 219 225 230 222 219 219 219 217 211 214 218 217 219
189 119 129 288 273 254 239 235 230 243 226 219 215 216 214 209 189 172 209 182 253 241 213 193 216 243 222 236 227 220 226 217 212 205 202 205 212 210
294 72 307 281 263 290 105 46 337 301 312 276 250 253 215 206 203 190 179 193 190 269 301 164 229 147 312 274 305 195 156 235 216 202 197 206 186 182
291 294 201 0 58 168 169 160 236 220 196 310 306 251 218 225 234 228 193 181 183 215 221 138 179 77 194 281 288 246 180 171 186 209 221 212 191 191
242 258 221 64 9 189 209 212 256 221 297 163 243 240 207 218 220 214 204 195 195 212 181 146 149 107 40 324 307 345 278 206 192 209 194 177 204 218
238 250 263 265 262 238 219 247 242 256 221 226 217 216 204 210 193 187 179 159 182 202 193 185 153 142 160 191 244 269 254 246 213 209 164 173 193 178
241 228 220 204 216 265 284 225 201 208 221 233 220 221 181 155 173 181 167 177 177 248 225 205 201 145 171 199 196 232 223 189 17 291 266 38 15 264
166 170 215 197 224 225 245 263 255 238 223 227 218 211 177 157 170 169 169 158 174 176 219 214 212 183 165 149 181 223 203 171 175 153 99 87 30 37
173 195 198 210 227 210 226 247 240 243 239 238 227 190 177 183 168 156 160 171 174 195 204 216 98 83 65 53 61 80 73 104 43 40 61 99 62 13
213 206 209 207 216 206 214 226 246 241 226 217 203 183 165 156 153 163 169 146 178 178 209 165 144 140 136 153 309 17 114 99 96 62 70 87 130 211
214 216 219 206 211 204 215 226 242 252 249 220 184 180 179 162 158 175 181 163 160 151 129 54 111 133 135 168 162 224 23 122 109 118 111 74 87 75
209 221 216 215 210 210 217 226 234 239 239 216 192 175 182 161 174 182 181 166 149 124 124 133 187 136 104 75 55 349 345 10 150 142 151 109 229 196
236 218 218 222 220 213 211 221 231 234 231 216 201 178 179 185 152 153 167 148 139 135 133 134 132 93 70 101 146 127 150 309 9 60 179 166 161 221
228 231 226 217 217 210 208 214 226 229 219 212 184 178 159 166 142 153 139 104 116 118 125 124 110 76 127 144 162 179 159 152 167 14 322 302 210 245